STARLINK-1208, 45205

Orbit data source: Space-Track

STARLINK-1208, 45205 is a payload satellite owned by SpaceX/Seattle (US) in LEO that was launched on Mon, 17 Feb 2020 UTC via an FALCON 9 launch vehicle from the Air Force Eastern Test Range (AFETR). Payloads include a variety of satellites, spacecraft, and rockets equipped with specific instruments for various scientific and technological missions. These include communications satellites like Starlink; space stations such as the ISS; scientific satellites like the Hubble; Earth observation satellites from companies like Planet Labs, Umbra, and HawkEye 360; GPS; miniature CubeSats for education and research; and military/defense satellites.

Loading next visibility...
STARLINK-1208 details
Identifier
45205, 2020-012AD
Orbit
LEO
Last TLE update23 hours ago
Origin
Flag of USSpaceX/Seattle (US)
ManufacturerSpaceX/Seattle
MissionOperational Commercial Communications
Bus & MotorSTARLINK, Unknown motor
Mass260 kg wet, ~248 kg dry
Launch date (UTC)
2020-02-17 (5 years ago)
Launch vehicle
FALCON 9
Launch site
Air Force Eastern Test Range (AFETR)
Object type
Payload
Rocket body
Debris
Shape & HBRBox + 1 Pan, 8.86 m
Radar Cross Section13.562 m², Large (>1 m²)

Expand to show TLE details & history

TLE from 23 hours ago
0 STARLINK-1208
1 45205U 20012AD  24339.20213303  .00020126  00000-0  13655-2 0  9999
2 45205  53.0542 293.8269 0001477  77.9138 282.2016 15.06418663265734
Epoch: 2024-12-04T04:51Z
Definitive object data (Epoch: 2024-12-04T04:51:04.293Z)
Latitude-0.00007°
Longitude147.55828°
Altitude547.817 km
Speed7.589 km/s
True Right ascension19h 35m 18s
True Declination0° 00' 00"
Sunlit
Object was in daylight at TLE epoch
Visualization TLE readout
Latitude12.4616°
Longitude-46.26279°
Altitude547.037 km
Speed7.591 km/s
Apparent Right ascension09h 25m 40s
Apparent Declination-20° 05' 30"
Sunlit
Object is in full shadow
Visualization observer readout
Local Sidereal Time01:49:28
Azimuth91.196° ESE
Elevation-30.928°
Doppler factor1
Orbital elements
Apogee altitude548.448 km
Perigee altitude546.402 km
Semi-major axis6,925.562 km
Eccentricity0.0001477
Inclination53.0542°
RAAN293.8269°
Arg. of periapsis77.9138°
True anomaly282.18506°
Mean anomaly282.2016°
Eccentric anomaly282.19333°
Mean motion3.76583 °/min
BSTAR0.0013655
Orbital period95.6 mins
Loading maneuver chart data...

STARLINK-1208 Visibility forecast

Observer location: undefined°, undefined

Span
Click to sort rows by Start time (UTC) header in descending order
Start Az.
Max El. time (UTC)
Max El. Az.
Max El.
End time (UTC)
End Az.
5 mins2024-12-05 05:11:09.730Z336.051° NNW2024-12-05 05:14:09.730Z32.335° NE21.534°2024-12-05 05:16:09.730Z68.498° E
6 mins2024-12-05 06:51:09.730Z303.346° NW2024-12-05 06:54:09.730Z169.254° S41.743°2024-12-05 06:57:09.730Z138.769° SSE
4 mins2024-12-05 22:25:09.730Z156.101° SSE2024-12-05 22:26:09.730Z136.906° SSE19.413°2024-12-05 22:29:09.730Z83.973° E
6 mins2024-12-06 00:03:09.730Z252.301° W2024-12-06 00:06:09.730Z347.751° N38.235°2024-12-06 00:09:09.730Z40.681° NE
|